RH
39 37 34 37 36 27 26 29 34 38 41 46 51 53 51 52 52 54 55 49 50 44 39 38 38 37 33 30 27 21 19 18 18 19 18 17 17 16 17 17 15 14 14
42 39 34 35 38 31 26 26 29 33 40 46 49 51 51 53 55 53 47 40 38 37 38 39 37 35 33 28 22 20 19 19 20 19 19 18 18 19 17 16 16 16 16
42 40 37 37 40 34 32 30 34 38 42 47 51 53 53 53 48 42 37 36 37 39 40 40 40 37 30 24 20 21 21 21 21 20 20 19 20 18 18 17 18 18 17
43 41 39 39 42 39 35 35 38 43 48 50 50 49 47 44 39 35 37 38 41 43 43 43 39 32 25 22 22 23 23 22 21 20 20 21 22 21 19 18 18 19 18
43 42 40 43 46 40 38 39 40 43 45 45 44 42 41 39 39 40 40 42 44 43 42 39 34 29 26 25 25 24 22 21 21 21 21 20 20 20 23 23 21 19 18
44 42 43 45 49 43 42 40 42 43 43 40 38 38 40 41 43 43 43 45 44 43 40 37 34 33 29 26 24 23 22 22 22 22 21 22 22 23 23 21 19 19 17
42 42 44 45 49 48 45 42 39 41 38 37 38 41 42 44 46 45 46 46 45 43 40 39 39 35 29 25 23 23 23 22 22 23 24 24 23 22 20 17 15 15 14
45 45 45 47 49 49 45 40 35 37 39 39 41 43 45 46 46 47 47 49 48 46 44 42 39 33 27 26 25 24 22 24 25 25 24 22 20 18 16 14 15 16 16
45 47 47 49 50 49 43 39 36 39 41 41 42 44 46 48 49 50 49 52 54 51 46 43 37 32 29 26 25 24 25 27 26 24 22 20 17 15 13 13 15 20 20
49 49 50 50 51 46 41 39 39 39 40 42 45 47 50 53 53 50 49 58 61 52 47 42 38 32 28 28 25 27 29 27 25 22 19 16 15 14 13 15 17 20 24
49 49 48 49 47 44 41 40 42 43 45 48 49 53 56 56 52 52 57 65 65 54 47 42 35 31 30 26 28 30 28 25 23 19 17 17 17 16 16 16 19 22 28
49 47 46 45 44 43 43 46 46 46 49 51 53 56 58 54 58 62 64 68 62 51 43 38 34 31 28 30 31 29 25 22 18 18 18 18 18 18 18 20 24 28 31
50 48 48 48 46 46 45 45 47 48 51 54 56 58 59 63 66 70 67 67 54 46 42 36 31 31 30 32 29 25 20 18 18 19 20 20 21 21 22 26 29 34 37
48 49 49 47 46 47 47 48 49 52 55 57 58 61 64 67 72 69 69 63 53 48 33 33 33 32 34 30 24 19 18 17 19 21 22 23 25 26 29 34 36 43 42
51 50 49 48 49 51 52 53 55 57 58 59 61 65 70 73 70 72 72 62 48 34 36 33 35 35 30 24 19 17 19 20 21 22 24 27 29 31 36 42 45 45 45
53 54 54 54 56 57 57 57 57 58 58 60 66 71 73 72 76 78 69 48 37 36 34 37 36 31 25 19 16 21 22 22 23 24 27 28 29 32 35 37 43 45 53
54 55 57 58 59 59 60 59 57 56 61 66 72 75 76 81 79 68 50 40 35 36 40 37 32 25 20 18 17 23 24 24 25 27 28 29 32 34 33 35 44 44 54
59 54 53 54 55 57 58 57 58 62 68 73 76 80 82 79 64 50 39 34 38 41 39 33 27 22 19 19 20 22 24 24 25 27 30 34 33 34 41 46 50 55 53
60 61 61 54 54 56 58 59 64 72 76 78 80 80 76 61 47 38 37 39 42 39 34 28 24 22 21 22 22 27 26 26 26 29 34 38 36 37 48 58 56 53 50
62 64 64 65 67 68 69 71 75 77 74 75 77 66 54 46 40 36 39 43 39 34 29 26 24 23 23 23 25 29 33 32 30 31 33 35 41 49 56 58 59 54 49
65 68 67 67 68 70 72 74 73 71 75 68 54 51 48 39 34 40 43 39 35 30 27 25 24 23 24 25 28 33 37 36 36 34 32 36 46 55 57 60 55 54 71
62 64 66 69 71 71 70 70 72 66 55 50 52 46 36 34 41 42 39 35 32 29 27 24 23 24 24 26 26 36 37 45 41 40 39 44 51 55 56 50 56 85 94
68 69 68 68 68 70 69 62 52 49 53 51 43 34 35 41 41 38 36 34 32 29 26 24 25 25 25 25 28 35 35 37 44 41 46 48 51 52 44 64 90 93 93
67 67 68 68 61 54 51 51 54 54 49 40 36 37 40 39 37 36 35 33 31 27 25 26 27 26 26 27 33 34 33 39 42 43 46 48 50 47 71 88 90 93 96
62 58 55 52 49 47 50 53 49 43 41 37 37 38 37 35 36 35 35 34 30 27 29 29 29 28 27 29 34 34 39 44 44 46 46 47 49 69 89 91 93 95 96
50 49 48 46 47 50 49 45 45 42 39 37 37 35 33 35 36 36 36 33 28 27 26 25 28 27 28 27 31 36 42 44 45 45 48 53 72 89 92 94 95 94 86